Weather History for KANK - November, 2012

Change the Weather History Date:

Saturday, November 3, 2012

  Actual Average (KGUC) Record (KGUC)
Temperature  
Mean Temperature 44 °F -  
Max Temperature 61 °F 46 °F 60 °F (2001)
Min Temperature 27 °F 18 °F 6 °F (2004)
Degree Days  
Heating Degree Days 21    
Moisture  
Dew Point 13 °F    
Average Humidity 33    
Maximum Humidity 65    
Minimum Humidity 12    
Precipitation  
Precipitation 0.00 in - - ()
Sea Level Pressure  
Sea Level Pressure 30.32 in    
Wind  
Wind Speed 4 mph (WSW)    
Max Wind Speed 18 mph    
Max Gust Speed 18 mph    
Visibility 10 miles    
Events      
Averages and records for this station are not official NWS values.
T = Trace of Precipitation, MM = Missing Value Source: NWS Daily Summary

Daily Weather History Graph

Daily Weather History Graph

Search for Another Location

Airport or City:

Trip Planner

Search our weather history database for the weather conditions in past years. The results will help you decide how hot, cold, wet, or windy it might be!

Date:

Astronomy

Nov. 03, 2012 Rise Set
Actual Time 7:33 AM MDT 6:01 PM MDT
Civil Twilight 7:05 AM MDT 6:29 PM MDT
Nautical Twilight 6:34 AM MDT 7:00 PM MDT
Astronomical Twilight 6:03 AM MDT 7:31 PM MDT
Moon 9:46 PM MDT (11/3) 11:38 AM MDT (11/3)
Length of Visible Light 11h 23m
Length of Day
10h 27m
Waning Gibbous, 80% of the Moon is Illuminated
Nov 3
Waning Gibbous
Nov 6
Last Quarter
Nov 13
New
Nov 20
First Quarter
Nov 28
Full

Hourly Weather History & Observations

Time (MDT) Temp. Windchill Dew Point Humidity Pressure Visibility Wind Dir Wind Speed Gust Speed Precip Events Conditions
12:15 AM 36.7 °F 32.9 °F 12.0 °F 36% 30.30 in 10.0 mi SSE 4.6 mph - N/A   Clear
12:35 AM 37.2 °F 32.6 °F 14.5 °F 40% 30.30 in 10.0 mi SSE 5.8 mph - N/A   Clear
12:55 AM 38.3 °F 34.8 °F 13.8 °F 37% 30.31 in 10.0 mi SSW 4.6 mph - N/A   Scattered Clouds
1:15 AM 37.9 °F - 14.0 °F 38% 30.31 in 10.0 mi Calm Calm - N/A   Mostly Cloudy
1:35 AM 35.6 °F 32.8 °F 14.5 °F 42% 30.32 in 10.0 mi SW 3.5 mph - N/A   Scattered Clouds
1:55 AM 35.1 °F 30.1 °F 16.0 °F 46% 30.31 in 10.0 mi SSE 5.8 mph - N/A   Clear
2:15 AM 35.2 °F - 15.1 °F 44% 30.32 in 10.0 mi Calm Calm - N/A   Scattered Clouds
2:35 AM 32.4 °F - 16.0 °F 51% 30.33 in 10.0 mi Calm Calm - N/A   Scattered Clouds
2:55 AM 30.9 °F 27.5 °F 16.5 °F 55% 30.34 in 10.0 mi WSW 3.5 mph - N/A   Clear
3:15 AM 32.4 °F - 17.1 °F 53% 30.34 in 10.0 mi Calm Calm - N/A   Clear
3:35 AM 32.4 °F 27.9 °F 15.8 °F 51% 30.35 in 10.0 mi West 4.6 mph - N/A   Clear
4:15 AM 29.3 °F 21.5 °F 17.6 °F 62% 30.35 in 10.0 mi West 8.1 mph - N/A   Clear
4:35 AM 28.4 °F 22.2 °F 18.0 °F 65% 30.35 in 10.0 mi SW 5.8 mph - N/A   Clear
4:55 AM 29.1 °F 24.1 °F 18.0 °F 63% 30.35 in 10.0 mi West 4.6 mph - N/A   Clear
5:15 AM 29.7 °F 24.7 °F 15.6 °F 56% 30.35 in 10.0 mi NW 4.6 mph - N/A   Clear
5:55 AM 29.8 °F - 16.2 °F 57% 30.34 in 10.0 mi Calm Calm - N/A   Clear
6:15 AM 29.1 °F 25.4 °F 16.3 °F 59% 30.35 in 10.0 mi West 3.5 mph - N/A   Clear
6:35 AM 28.0 °F 22.8 °F 16.3 °F 62% 30.34 in 10.0 mi West 4.6 mph - N/A   Clear
6:55 AM 27.7 °F 23.8 °F 16.5 °F 63% 30.34 in 10.0 mi NW 3.5 mph - N/A   Clear
7:15 AM 28.2 °F 20.2 °F 15.4 °F 59% 30.35 in 10.0 mi NW 8.1 mph - N/A   Clear
7:55 AM 29.5 °F - 14.9 °F 55% 30.37 in 10.0 mi Calm Calm - N/A   Clear
8:15 AM 30.7 °F 22.6 °F 15.8 °F 54% 30.37 in 10.0 mi WNW 9.2 mph - N/A   Clear
8:55 AM 33.8 °F - 16.2 °F 49% 30.37 in 10.0 mi Calm Calm - N/A   Clear
9:15 AM 35.8 °F - 16.2 °F 45% 30.37 in 10.0 mi Calm Calm - N/A   Clear
9:35 AM 36.1 °F - 16.5 °F 45% 30.37 in 10.0 mi Calm Calm - N/A   Clear
9:55 AM 37.0 °F - 16.7 °F 44% 30.37 in 10.0 mi Calm Calm - N/A   Clear
10:15 AM 38.8 °F - 16.0 °F 40% 30.35 in 10.0 mi Calm Calm - N/A   Clear
10:35 AM 41.5 °F 37.8 °F 16.5 °F 36% 30.35 in 10.0 mi North 5.8 mph - N/A   Clear
10:55 AM 42.3 °F - 16.7 °F 36% 30.35 in 10.0 mi Calm Calm - N/A   Clear
11:15 AM 43.7 °F - 16.2 °F 33% 30.34 in 10.0 mi Calm Calm - N/A   Clear
11:55 AM 48.6 °F - 14.9 °F 26% 30.33 in 10.0 mi Calm Calm - N/A   Clear
12:15 PM 52.2 °F - 15.3 °F 23% 30.32 in 10.0 mi Calm Calm - N/A   Clear
12:35 PM 53.1 °F - 14.9 °F 22% 30.31 in 10.0 mi Calm Calm - N/A   Clear
12:55 PM 54.1 °F - 12.4 °F 19% 30.30 in 10.0 mi NNE 3.5 mph - N/A   Clear
1:15 PM 55.8 °F - 13.3 °F 19% 30.29 in 10.0 mi Calm Calm - N/A   Clear
1:35 PM 57.6 °F - 11.7 °F 16% 30.29 in 10.0 mi South 3.5 mph - N/A   Clear
1:55 PM 59.0 °F - 9.3 °F 14% 30.27 in 10.0 mi SSE 6.9 mph - N/A   Clear
2:15 PM 58.5 °F - 8.8 °F 14% 30.27 in 10.0 mi North 5.8 mph - N/A   Clear
2:35 PM 59.9 °F - 8.1 °F 13% 30.26 in 10.0 mi SSW 8.1 mph - N/A   Clear
2:55 PM 60.1 °F - 8.1 °F 13% 30.27 in 10.0 mi Calm Calm - N/A   Clear
3:15 PM 59.7 °F - 7.9 °F 13% 30.26 in 10.0 mi South 4.6 mph - N/A   Clear
3:35 PM 60.1 °F - 8.1 °F 13% 30.25 in 10.0 mi Calm Calm - N/A   Clear
3:55 PM 61.3 °F - 8.1 °F 12% 30.26 in 5.0 mi WSW 9.2 mph - N/A   Clear
4:15 PM 60.8 °F - 7.7 °F 12% 30.26 in 10.0 mi WSW 10.4 mph 17.3 mph N/A   Clear
4:35 PM 60.1 °F - 7.9 °F 13% 30.26 in 10.0 mi WSW 18.4 mph - N/A   Clear
4:55 PM 59.2 °F - 7.9 °F 13% 30.26 in 10.0 mi WSW 10.4 mph - N/A   Clear
5:15 PM 57.9 °F - 7.7 °F 14% 30.27 in 10.0 mi WSW 11.5 mph 16.1 mph N/A   Clear
5:35 PM 55.8 °F - 8.8 °F 15% 30.27 in 10.0 mi WSW 9.2 mph 17.3 mph N/A   Clear
5:55 PM 54.1 °F - 8.8 °F 16% 30.27 in 10.0 mi WSW 11.5 mph 16.1 mph N/A   Clear
6:15 PM 53.6 °F - 8.2 °F 16% 30.27 in 10.0 mi WSW 11.5 mph - N/A   Clear
6:35 PM 52.0 °F - 8.6 °F 17% 30.29 in 10.0 mi WSW 10.4 mph - N/A   Clear
6:55 PM 52.0 °F - 8.4 °F 17% 30.29 in 10.0 mi WSW 11.5 mph - N/A   Clear
7:15 PM 52.0 °F - 8.6 °F 17% 30.30 in 10.0 mi WSW 11.5 mph 18.4 mph N/A   Clear
7:35 PM 51.6 °F - 9.3 °F 18% 30.30 in 10.0 mi WSW 11.5 mph - N/A   Clear
7:55 PM 50.9 °F - 10.2 °F 20% 30.31 in 10.0 mi West 3.5 mph - N/A   Clear
8:35 PM 50.4 °F - 10.4 °F 20% 30.32 in 10.0 mi WNW 6.9 mph - N/A   Clear
8:55 PM 49.1 °F - 10.9 °F 22% 30.33 in 10.0 mi West 4.6 mph - N/A   Clear
9:15 PM 48.7 °F - 10.4 °F 21% 30.34 in 10.0 mi NNW 3.5 mph - N/A   Clear
9:35 PM 44.8 °F 43.3 °F 9.1 °F 23% 30.34 in 10.0 mi NW 3.5 mph - N/A   Clear
9:55 PM 43.0 °F - 9.5 °F 25% 30.35 in 10.0 mi Calm Calm - N/A   Clear
10:15 PM 43.7 °F - 9.5 °F 25% 30.35 in 10.0 mi Calm Calm - N/A   Clear
10:35 PM 39.2 °F - 9.1 °F 29% 30.35 in 10.0 mi Calm Calm - N/A   Clear
10:55 PM 39.4 °F - 9.5 °F 29% 30.35 in 10.0 mi Calm Calm - N/A   Clear
11:15 PM 36.3 °F 32.5 °F 9.5 °F 33% 30.35 in 10.0 mi NW 4.6 mph - N/A   Clear
11:35 PM 37.0 °F 33.3 °F 9.9 °F 33% 30.36 in 10.0 mi NNW 4.6 mph - N/A   Clear
11:55 PM 38.3 °F 35.9 °F 10.2 °F 31% 30.37 in 10.0 mi West 3.5 mph - N/A   Clear